This demonstration page uses our WeatherBlox Daily Observations layout. Learn more.

Left ArrowRight Arrow

39.08367, -84.50855

Hourly Observations for April 20, 2015

Temp ( °F °C ) Dew Point ( °F °C ) Humidity (%) Winds ( mph kmh ) Pressure ( in mb ) Visibility ( mi km ) Precip ( " mm )
12:44 am 00:44 Cloudy 63 17 59 15 88 88 SW 16 26 29.47 998 10 16 N/A
12:53 am 00:53 Mostly Cloudy 63 17.2 58 14.4 84 84 SW 16 26 29.46 998 10 16 N/A
1:10 am 01:10 Mostly Cloudy 63 17.2 58 14.4 84 84 SW 17 28 29.47 998 10 16 N/A
1:18 am 01:18 Mostly Cloudy 63 17 57 14 83 83 SW 16 26 29.47 998 10 16 N/A
1:53 am 01:53 Cloudy 62 16.7 57 13.9 84 84 SSW 14 22 29.48 998 10 16 N/A
2:53 am 02:53 Partly Cloudy 60 15.6 56 13.3 86 86 SW 13 20 29.47 998 10 16 N/A
3:53 am 03:53 Clear 60 15.6 56 13.3 86 86 SSW 15 24 29.47 998 10 16 N/A
4:53 am 04:53 Clear 59 15 56 13.3 90 90 SSW 12 19 29.48 998 10 16 N/A
5:53 am 05:53 Cloudy with Light Rain 59 15 58 14.4 96 96 S 9 15 29.47 998 8 13 0.03 0.76
6:45 am 06:45 Cloudy with Light Rain 59 15 58 14.4 96 96 SSW 9 15 29.47 998 10 16 N/A
6:53 am 06:53 Mostly Cloudy with Light Rain 59 15 58 14.4 96 96 S 8 13 29.45 997 10 16 N/A
7:05 am 07:05 Cloudy 59 15 58 14.4 96 96 S 9 15 29.47 998 10 16 N/A
7:53 am 07:53 Cloudy 59 15 54 12.2 83 83 SSW 14 22 29.46 998 10 16 N/A
8:44 am 08:44 Cloudy 59 15 54 12 82 82 SW 13 20 29.47 998 10 16 N/A
8:53 am 08:53 Cloudy 59 15 54 12.2 83 83 SW 14 22 29.47 998 10 16 N/A
9:53 am 09:53 Cloudy 59 15 55 12.8 87 87 SSW 17 28 29.48 998 10 16 N/A
10:06 am 10:06 Cloudy 59 15 55 13 88 88 SW 17 28 29.50 999 10 16 N/A
10:53 am 10:53 Cloudy 61 16.1 55 12.8 81 81 SW 17 28 29.49 999 10 16 0.01 0.25
11:53 am 11:53 Cloudy with Heavy Rain 58 14.4 53 11.7 84 84 WSW 21 33 29.52 1000 4 6 0.03 0.76
12:13 pm 12:13 Mostly Cloudy 62 16.7 56 13.3 80 80 WSW 17 28 29.53 1000 10 16 N/A
12:23 pm 12:23 Mostly Cloudy 59 15 52 11.1 78 78 WSW 22 35 29.53 1000 10 16 N/A
12:53 pm 12:53 Mostly Cloudy 62 16.7 49 9.4 62 62 W 26 43 29.54 1000 10 16 N/A
12:56 pm 12:56 Mostly Cloudy 61 16.1 49 9.4 65 65 W 23 37 29.56 1001 10 16 N/A
1:53 pm 13:53 Cloudy 62 16.7 50 10 65 65 SW 15 24 29.56 1001 10 16 N/A
2:53 pm 14:53 Cloudy 61 16.1 50 10 67 67 W 16 26 29.57 1002 10 16 N/A
3:53 pm 15:53 Cloudy 58 14.4 47 8.3 67 67 W 20 31 29.60 1002 10 16 N/A
4:53 pm 16:53 Cloudy 56 13.3 43 6.1 62 62 WSW 15 24 29.62 1003 10 16 N/A
5:53 pm 17:53 Cloudy 58 14.4 43 6.1 58 58 WSW 12 19 29.62 1003 10 16 N/A
6:53 pm 18:53 Mostly Cloudy 57 13.9 40 4.4 53 53 WNW 17 28 29.65 1004 10 16 N/A
7:53 pm 19:53 Cloudy 54 12.2 39 3.9 57 57 W 14 22 29.67 1005 10 16 N/A
8:53 pm 20:53 Mostly Clear 53 11.7 34 1.1 48 48 W 17 28 29.70 1006 10 16 N/A
9:53 pm 21:53 Cloudy with Light Rain 51 10.6 38 3.3 61 61 WNW 13 20 29.75 1008 10 16 N/A
10:53 pm 22:53 Mostly Cloudy 50 10 36 2.2 59 59 W 12 19 29.77 1008 10 16 N/A
11:53 pm 23:53 Cloudy 49 9.4 36 2.2 61 61 SW 8 13 29.79 1009 10 16 N/A

Powered by AerisWeather